| time (UTC) | temp F | wind direction | speed knots | gust knots | rain 1hr in | rain 24hr in | rain mn in | humidity % | barometer mb |
| 20260506181830 | 60 | 91 | 0.0 | 1.7 | 0.04 | 0.06 | 0.06 | 94 | 1007.4 |
| 20260506180828 | 60 | 115 | 0.0 | 0.9 | 0.08 | 0.06 | 0.06 | 95 | 1007.5 |
| 20260506175755 | 59 | 80 | 0.0 | 4.3 | 0.00 | 0.04 | 0.05 | 94 | 1007.4 |
| 20260506174725 | 59 | 70 | 0.0 | 1.7 | 0.00 | 0.04 | 0.04 | 93 | 1007.3 |
| 20260506173728 | 60 | 72 | 0.0 | 0.9 | 0.00 | 0.04 | 0.04 | 93 | 1007.4 |
| 20260506172728 | 60 | 93 | 0.0 | 1.7 | 0.04 | 0.03 | 0.03 | 92 | 1007.6 |
| 20260506171743 | 60 | 94 | 0.0 | 0.0 | 0.06 | 0.03 | 0.03 | 91 | 1007.4 |
| 20260506170724 | 61 | 95 | 0.0 | 0.0 | 0.10 | 0.02 | 0.02 | 89 | 1007.8 |
| 20260506165653 | 62 | 127 | 0.0 | 1.7 | 0.00 | 0.00 | 0.00 | 87 | 1008.1 |
| 20260506164625 | 63 | 77 | 0.0 | 0.0 | 0.00 | 0.00 | 0.00 | 85 | 1008.5 |
| 20260506163643 | 63 | 105 | 0.0 | 2.6 | 0.00 | 0.00 | 0.00 | 83 | 1008.6 |
| 20260506162619 | 64 | 70 | 0.0 | 0.9 | 0.00 | 0.00 | 0.00 | 83 | 1008.6 |
| 20260506161627 | 64 | 337 | 0.0 | 2.6 | 0.00 | 0.00 | 0.00 | 81 | 1008.5 |
| 20260506160615 | 65 | 63 | 0.0 | 3.5 | 0.00 | 0.00 | 0.00 | 81 | 1008.7 |
| 20260506154451 | 66 | 65 | 0.0 | 3.5 | 0.00 | 0.00 | 0.00 | 78 | 1008.8 |
| 20260506153443 | 66 | 74 | 0.9 | 3.5 | 0.00 | 0.00 | 0.00 | 79 | 1008.8 |
| 20260506150227 | 65 | 69 | 0.0 | 2.6 | 0.00 | 0.00 | 0.00 | 80 | 1008.8 |
| 20260506145158 | 65 | 70 | 0.0 | 2.6 | 0.00 | 0.00 | 0.00 | 81 | 1008.6 |
| 20260506144156 | 65 | 89 | 0.0 | 2.6 | 0.00 | 0.00 | 0.00 | 80 | 1008.6 |
| 20260506142055 | 65 | 70 | 0.0 | 2.6 | 0.00 | 0.00 | 0.00 | 81 | 1008.9 |
| 20260506141025 | 65 | 91 | 0.9 | 4.3 | 0.00 | 0.00 | 0.00 | 79 | 1009.1 |
| 20260506140015 | 66 | 84 | 1.7 | 4.3 | 0.00 | 0.00 | 0.00 | 79 | 1009.0 |
| 20260506135035 | 65 | 70 | 0.9 | 3.5 | 0.00 | 0.00 | 0.00 | 80 | 1008.9 |
| 20260506134003 | 64 | 78 | 0.0 | 3.5 | 0.00 | 0.00 | 0.00 | 82 | 1009.1 |
| 20260506133019 | 64 | 72 | 0.0 | 2.6 | 0.00 | 0.00 | 0.00 | 82 | 1009.1 |
| 20260506131955 | 64 | 98 | 0.0 | 0.9 | 0.00 | 0.00 | 0.00 | 83 | 1008.9 |
| 20260506131009 | 63 | 72 | 0.0 | 1.7 | 0.00 | 0.00 | 0.00 | 84 | 1008.8 |
| 20260506125945 | 63 | 103 | 0.0 | 1.7 | 0.00 | 0.00 | 0.00 | 84 | 1008.8 |
| 20260506123812 | 63 | 89 | 0.0 | 4.3 | 0.00 | 0.00 | 0.00 | 83 | 1009.0 |
| 20260506122822 | 64 | 45 | 0.0 | 4.3 | 0.00 | 0.00 | 0.00 | 83 | 1009.1 |
| 20260506121800 | 63 | 85 | 0.0 | 0.0 | 0.00 | 0.00 | 0.00 | 86 | 1009.4 |
| 20260506120813 | 63 | 104 | 0.0 | 2.6 | 0.00 | 0.00 | 0.00 | 85 | 1009.4 |
| 20260506115756 | 62 | 39 | 0.0 | 1.7 | 0.00 | 0.00 | 0.00 | 87 | 1009.4 |
| 20260506114736 | 61 | 70 | 0.0 | 2.6 | 0.00 | 0.00 | 0.00 | 87 | 1009.3 |
| 20260506113731 | 61 | 83 | 0.0 | 2.6 | 0.00 | 0.00 | 0.00 | 88 | 1009.3 |
| 20260506112706 | 60 | 103 | 0.0 | 0.9 | 0.00 | 0.00 | 0.00 | 93 | 1009.2 |
| 20260506111647 | 59 | 72 | 0.0 | 0.9 | 0.00 | 0.00 | 0.00 | 94 | 1009.4 |
| 20260506105528 | 56 | 179 | 0.0 | 0.0 | 0.00 | 0.00 | 0.00 | 98 | 1009.4 |
| 20260506104551 | 55 | 134 | 0.0 | 0.0 | 0.00 | 0.00 | 0.00 | 98 | 1009.4 |
| 20260506103532 | 54 | 212 | 0.0 | 0.0 | 0.00 | 0.00 | 0.00 | 97 | 1009.3 |
| 20260506083231 | 54 | 112 | 0.0 | 0.0 | 0.00 | 0.00 | 0.00 | 95 | 1009.6 |
| 20260506082207 | 54 | 111 | 0.0 | 0.0 | 0.00 | 0.00 | 0.00 | 95 | 1009.6 |
| 20260506081226 | 54 | 111 | 0.0 | 0.0 | 0.00 | 0.00 | 0.00 | 95 | 1009.7 |
| 20260506072959 | 54 | 111 | 0.0 | 0.0 | 0.00 | 0.00 | 0.00 | 95 | 1009.7 |
| 20260506072018 | 54 | 111 | 0.0 | 0.0 | 0.00 | 0.00 | 0.00 | 94 | 1009.8 |
| 20260506071022 | 55 | 111 | 0.0 | 0.0 | 0.00 | 0.00 | 0.00 | 94 | 1009.8 |
| 20260506061604 | 56 | 111 | 0.0 | 0.0 | 0.00 | 0.00 | 0.00 | 90 | 1009.7 |
| 20260506060533 | 57 | 111 | 0.0 | 0.0 | 0.00 | 0.00 | 0.00 | 89 | 1009.7 |
| 20260506050513 | 61 | 111 | 0.0 | 0.9 | 0.00 | 0.00 | 0.00 | 83 | 1009.9 |
| 20260506044452 | 62 | 82 | 0.0 | 0.0 | 0.00 | 0.00 | 0.00 | 81 | 1010.1 |
| 20260506043503 | 62 | 82 | 0.0 | 0.0 | 0.00 | 0.00 | 0.00 | 82 | 1010.0 |
| 20260506042448 | 62 | 83 | 0.0 | 0.0 | 0.00 | 0.00 | 0.00 | 81 | 1009.9 |
| 20260506041501 | 62 | 143 | 0.0 | 0.0 | 0.00 | 0.00 | 0.00 | 81 | 1009.9 |
| 20260506035357 | 62 | 331 | 0.0 | 1.7 | 0.00 | 0.00 | 0.00 | 80 | 1010.0 |
| 20260506034408 | 62 | 125 | 0.0 | 0.0 | 0.00 | 0.00 | 0.00 | 78 | 1010.0 |
| 20260506033344 | 62 | 98 | 0.0 | 0.0 | 0.00 | 0.00 | 0.00 | 78 | 1009.8 |
| 20260506032329 | 62 | 129 | 0.0 | 0.0 | 0.00 | 0.00 | 0.00 | 78 | 1009.8 |
| 20260506030224 | 63 | 96 | 0.0 | 0.0 | 0.00 | 0.00 | 0.00 | 77 | 1009.8 |
| 20260506024021 | 63 | 78 | 0.0 | 0.0 | 0.00 | 0.00 | 0.00 | 75 | 1009.9 |
| 20260506023040 | 64 | 78 | 0.0 | 0.0 | 0.00 | 0.00 | 0.00 | 74 | 1009.9 |
| 20260506022021 | 64 | 30 | 0.0 | 2.6 | 0.00 | 0.00 | 0.00 | 74 | 1009.8 |
| 20260506020951 | 64 | 248 | 0.0 | 4.3 | 0.00 | 0.00 | 0.00 | 73 | 1009.8 |
| 20260506015921 | 65 | 119 | 0.0 | 4.3 | 0.00 | 0.00 | 0.00 | 72 | 1009.7 |
| 20260506014908 | 65 | 113 | 0.0 | 0.0 | 0.00 | 0.00 | 0.00 | 72 | 1009.6 |
| 20260506013913 | 65 | 72 | 0.0 | 0.0 | 0.00 | 0.00 | 0.00 | 71 | 1009.5 |
| 20260506011815 | 65 | 83 | 0.0 | 1.7 | 0.00 | 0.00 | 0.00 | 71 | 1009.2 |
| 20260506005633 | 65 | 146 | 0.0 | 1.7 | 0.00 | 0.00 | 0.00 | 70 | 1008.9 |
| 20260506004639 | 65 | 330 | 0.0 | 0.0 | 0.00 | 0.00 | 0.00 | 70 | 1008.9 |
| 20260506001319 | 66 | 77 | 0.0 | 1.7 | 0.00 | 0.00 | 0.00 | 68 | 1008.5 |
| 20260506000338 | 67 | 77 | 0.0 | 0.9 | 0.00 | 0.00 | 0.00 | 67 | 1008.4 |
| 20260505235324 | 67 | 49 | 0.0 | 2.6 | 0.00 | 0.00 | 0.00 | 66 | 1008.3 |
| 20260505234347 | 67 | 179 | 0.0 | 4.3 | 0.00 | 0.00 | 0.00 | 65 | 1008.1 |
| 20260505233326 | 68 | 176 | 0.0 | 4.3 | 0.00 | 0.00 | 0.00 | 64 | 1007.9 |
| 20260505232309 | 69 | 74 | 0.0 | 2.6 | 0.00 | 0.00 | 0.00 | 63 | 1007.8 |
| 20260505231237 | 69 | 76 | 0.0 | 1.7 | 0.00 | 0.00 | 0.00 | 63 | 1007.7 |
| 20260505230301 | 70 | 102 | 0.0 | 0.9 | 0.00 | 0.00 | 0.00 | 62 | 1007.5 |
| 20260505224139 | 71 | 84 | 0.0 | 3.5 | 0.00 | 0.00 | 0.00 | 59 | 1007.3 |
| 20260505223137 | 72 | 90 | 0.0 | 3.5 | 0.00 | 0.00 | 0.00 | 59 | 1007.5 |
| 20260505222128 | 73 | 100 | 0.0 | 2.6 | 0.00 | 0.00 | 0.00 | 57 | 1007.5 |
| 20260505221113 | 73 | 78 | 0.0 | 2.6 | 0.00 | 0.00 | 0.00 | 57 | 1007.5 |
| 20260505213750 | 73 | 68 | 0.0 | 9.6 | 0.00 | 0.00 | 0.00 | 57 | 1007.4 |
| 20260505212751 | 73 | 148 | 0.9 | 9.6 | 0.00 | 0.00 | 0.00 | 58 | 1007.3 |
| 20260505211807 | 73 | 80 | 0.9 | 5.2 | 0.00 | 0.00 | 0.00 | 58 | 1007.3 |
| 20260505210737 | 74 | 77 | 0.9 | 5.2 | 0.00 | 0.00 | 0.00 | 58 | 1007.1 |
| 20260505205727 | 74 | 36 | 1.7 | 5.2 | 0.00 | 0.00 | 0.00 | 58 | 1007.1 |
| 20260505204716 | 74 | 101 | 0.9 | 5.2 | 0.00 | 0.00 | 0.00 | 57 | 1007.4 |
| 20260505203729 | 75 | 65 | 0.9 | 6.1 | 0.00 | 0.00 | 0.00 | 56 | 1007.2 |
| 20260505202727 | 75 | 62 | 1.7 | 6.1 | 0.00 | 0.00 | 0.00 | 57 | 1007.3 |
| 20260505200533 | 75 | 91 | 1.7 | 5.2 | 0.00 | 0.00 | 0.00 | 57 | 1007.5 |
| 20260505195558 | 75 | 108 | 0.9 | 5.2 | 0.00 | 0.00 | 0.00 | 57 | 1007.7 |
| 20260505194537 | 75 | 108 | 0.9 | 5.2 | 0.00 | 0.00 | 0.00 | 57 | 1007.8 |
| 20260505191237 | 75 | 72 | 1.7 | 5.2 | 0.00 | 0.00 | 0.00 | 59 | 1008.2 |
| 20260505190256 | 76 | 68 | 0.9 | 4.3 | 0.00 | 0.00 | 0.00 | 57 | 1008.4 |
| 20260505185257 | 76 | 68 | 0.9 | 4.3 | 0.00 | 0.00 | 0.00 | 58 | 1008.4 |
| 20260505184314 | 76 | 17 | 0.9 | 6.1 | 0.00 | 0.00 | 0.00 | 56 | 1008.5 |
| 20260505183328 | 76 | 134 | 0.9 | 6.1 | 0.00 | 0.00 | 0.00 | 55 | 1008.6 |